Location: Marcé
(47.5801°N, 0.3280°W)
Time: 04:15:56
(UTC+01:00)

Vanguard 1 Rocket - Pass Details

Date: 04 December 2021
Orbit: 651 x 4225 km, 34.3° (Epoch: 26 January)

Event Time Altitude Azimuth Distance (km) Brightness Sun altitude
Exits shadow 02:33:25 25° 118° (ESE) 4,010 10.6 -57.5°
Drops below altitude 10° 02:42:21 10° 92° (E) 6,040 11.8 -56.3°
Sets 02:49:08 0° 83° (E) 7,635 12.5 -55.4°
